Regional Weather Roundup
Issued by NWS

Home | Current Version | Previous Version | Text Only | Print | Product List | Glossary Off
Versions: 1 2 3 4 5 6 7 8 9 10 11 12 13 14 15 16 17 18 19 20 21 22 23 24 25 26 27 28

000
ASUS45 KTFX 182110
RWRMT
MONTANA REGIONAL WEATHER ROUNDUP
NATIONAL WEATHER SERVICE GREAT FALLS MT
300 PM MDT MON SEP 18 2017

NOTE: "FAIR" INDICATES FEW OR NO CLOUDS BELOW 12000 FEET WITH NO
SIGNIFICANT WEATHER AND/OR OBSTRUCTIONS TO VISIBILITY.

MTZ001>007-043-182200-
WEST OF THE DIVIDE

CITY           SKY/WX    TMP DP  RH WIND       PRES   REMARKS
KALISPELL      CLOUDY    50  48  93 SE12      29.69F
MISSOULA       RAIN      50  44  80 NW18      29.71R
BUTTE          CLOUDY    52  36  54 SW13      29.78F
MULLAN PASS    FOG       36  35  96 VRB7      29.73F VSB 1/2 WCI  30
ANACONDA         N/A     52  36  54 S16G25    29.75S
DEER LODGE       N/A     54  37  54 S12G21    29.72R
HAMILTON         N/A     57  39  51 S14       29.68S
LIBBY            N/A     52  46  82 SW8       29.66R
PLAINS           N/A     52  42  68 S7        29.77S
$$

MTZ008-052>055-182200-
SOUTHWEST MONTANA

CITY           SKY/WX    TMP DP  RH WIND       PRES   REMARKS
BOZEMAN        LGT RAIN  58  40  51 NW7       29.74F
DILLON         CLOUDY    53  41  63 N9        29.75F
W YELLOWSTONE  CLOUDY    55  30  38 SW21G30   29.84F
ENNIS          CLOUDY    57  34  41 S24G36    29.80S
THREE FORKS      N/A     60  39  45 W6        29.75F
TWIN BRIDGES     N/A     54  39  56 CALM      29.78F
$$

MTZ009-010-012-014-046-048-049-054-182200-
EAST SLOPES AND CENTRAL MONTANA

CITY           SKY/WX    TMP DP  RH WIND       PRES   REMARKS
CUT BANK       CLOUDY    53  48  83 SW9       29.62R
GREAT FALLS    CLOUDY    64  33  31 SW14      29.63F
MALMSTROM AFB  CLOUDY    66  35  31 SW16      29.63S
HELENA         CLOUDY    64  35  34 S13G21    29.67F
BOWMANS CRNR     N/A     60  32  34 SW23G32   29.63F
CHOTEAU          N/A     66  34  30 S20       29.61F
FAIRFIELD        N/A     64  34  33 SW18G28   29.60F
POWER            N/A     63  35  35 SW23G32   29.62F
RAYNESFORD     PTSUNNY   67  32  27 W14G23    29.64F
ULM              N/A     65  33  29 SW14      29.63F
$$

MTZ011-013-016-021-045-047-050-051-182200-
NORTH CENTRAL MONTANA

CITY           SKY/WX    TMP DP  RH WIND       PRES   REMARKS
HAVRE          CLOUDY    69  39  33 SW14      29.60F
LEWISTOWN      CLOUDY    63  36  36 S7        29.69F
N BAR RANCH    PTSUNNY   66  34  30 W7G18     29.72F
CHINOOK          N/A     66  39  37 CALM      29.62F
DENTON           N/A     66  36  32 NE3       29.62F
GEYSER         PTSUNNY   64  36  35 N8        29.65F
GRASS RANGE    CLOUDY    65  32  29 W5        29.65F
JUDITH GAP     PTSUNNY   60  36  39 W16       29.72F
WINIFRED       PTSUNNY   65  35  32 NW7       29.66F
$$

MTZ017>020-022>027-061-062-182200-
NORTHEAST MONTANA

CITY           SKY/WX    TMP DP  RH WIND       PRES   REMARKS
GLASGOW        PTSUNNY   71  40  32 S8        29.65F
JORDAN           N/A     74  37  26 S9G16     29.65F
SIDNEY         CLOUDY    75  45  34 S9        29.70F
WOLF POINT     SUNNY     79  35  20 SW12G22   29.65F
MALTA          SUNNY     73  36  25 S8        29.62F
PLENTYWOOD       N/A     72  43  35 S9G16     29.70F
POPLAR           N/A     79  34  19 S14       29.67F
SCOBEY           N/A     73  36  26 S8        29.68F
$$

MTZ028>42-056>058-182200-
SOUTHCENTRAL AND SOUTHEAST MONTANA

CITY           SKY/WX    TMP DP  RH WIND       PRES   REMARKS
BAKER          CLOUDY    76  29  17 S13       29.76F
BILLINGS       CLOUDY    72  40  31 VRB5      29.68F
LIVINGSTON     CLOUDY    66  33  29 SW29G38   29.69F
MILES CITY     CLOUDY    75  33  21 SE7       29.69F
BIG TIMBER     MOSUNNY   68  34  28 W16       29.72F
EKALAKA          N/A     72  33  23 SE8       29.78F
HARLOWTON      CLOUDY    63  35  34 MISG      29.70F
LAUREL           N/A     75  36  23 VRB6G13   29.67F
$$

REGIONAL REPORTS...DAKOTAS

CITY           SKY/WX    TMP DP  RH WIND       PRES   REMARKS
WILLISTON      SUNNY     75  45  34 S13       29.71F
MINOT          SUNNY     71  48  43 E7        29.77F
DICKINSON      SUNNY     77  36  22 S9        29.75F
BEACH            N/A     73  30  20 S13G20    29.77F
CROSBY           N/A     72  39  30 S12       29.72F
TIOGA            N/A     70  43  37 S14       29.75F
WATFORD CITY     N/A     75  39  27 S10       29.72F
BISMARCK       SUNNY     71  48  43 CALM      29.79F
GRAND FORKS    CLOUDY    68  55  63 SE10      29.81F
FARGO          MOSUNNY   68  57  68 SE20G25   29.83F
BUFFALO SD       N/A     78  34  20 S18       29.71F
RAPID CITY     SUNNY     77  45  31 SE12      29.79F
$$

REGIONAL REPORTS...WYOMING/IDAHO/WASHINGTON

CITY           SKY/WX    TMP DP  RH WIND       PRES   REMARKS
GILLETTE       CLOUDY    75  29  18 SW12      29.79F
SHERIDAN       CLOUDY    72  39  30 E6        29.73F
BUFFALO WY     CLOUDY    76  24  14 SE13G20   29.79F
YELLOWSTONE LA   N/A     53  28  38 W5        29.94F
IDAHO FALLS    CLOUDY    70  38  31 SW20G28   29.79F
SALMON         RAIN      49  47  93 CALM      29.80F FOG
BOISE          CLOUDY    64  47  53 NE6       29.77F
SPOKANE        PTSUNNY   59  39  47 W17       29.70S
$$

REGIONAL REPORTS...ALBERTA

CITY           SKY/WX    TMP DP  RH WIND       PRES   REMARKS
EDMONTON       SUNNY     59  41  51 E13G18    29.51F
CALGARY        PTSUNNY   64  30  27 S12       29.47F
LETHBRIDGE     PTSUNNY   64  39  39 SW15G22   29.55F
MEDICINE HAT   CLOUDY    70  37  30 S8G17     29.53F
$$

REGIONAL REPORTS...SASKATCHEWAN

CITY           SKY/WX    TMP DP  RH WIND       PRES   REMARKS
SWIFT CURRENT  SUNNY     70  34  26 S18G24    29.58F
REGINA         PTSUNNY   72  37  28 SE16      29.65F
SASKATOON      PTSUNNY   68  39  34 SE20G25   29.64F
$$




USA.gov is the U.S. government's official web portal to all federal, state and local government web resources and services.